Location: Newark
(42.1667°N, 14.5667°E)
Time: 17:06:32
(UTC+00:00)

ISS - Visible Passes

Search period start: 27 January 2020 00:00
Search period end: 06 February 2020 00:00
Orbit: 416 x 423 km, 51.6° (Epoch: 28 January)

Date Brightness Start Highest point End Pass type
(mag) Time Alt. Az. Time Alt. Az. Time Alt. Az.
27 Jan -2.3 16:39:47 10° W 16:42:47 29° NNW 16:45:48 10° NE visible
27 Jan -1.1 18:18:10 10° NW 18:19:20 14° NNW 18:19:20 14° NNW visible
28 Jan -1.7 17:30:19 10° NW 17:32:39 17° N 17:33:46 15° NNE visible
29 Jan -1.7 16:42:23 10° WNW 16:44:55 19° NNW 16:47:27 10° NE visible
29 Jan -1.1 18:20:15 10° NW 18:21:10 14° NNW 18:21:10 14° NNW visible
30 Jan -1.7 17:32:37 10° NW 17:34:53 16° N 17:35:36 16° NNE visible
31 Jan -1.6 16:44:52 10° NW 16:47:06 16° N 16:49:21 10° NE visible
31 Jan -1.3 18:21:55 10° NW 18:23:01 17° NNW 18:23:01 17° NNW visible
01 Feb -2.1 17:34:25 10° NW 17:37:02 20° NNE 17:37:31 20° NNE visible
02 Feb -1.8 16:46:52 10° NW 16:49:16 18° N 16:51:39 10° NE visible
02 Feb -1.8 18:23:25 10° NW 18:25:01 24° NNW 18:25:01 24° NNW visible
03 Feb -2.8 17:35:56 10° NW 17:39:02 32° NNE 17:39:38 29° NE visible
04 Feb -2.4 16:48:27 10° NW 16:51:18 24° NNE 16:54:09 10° ENE visible
04 Feb -2.5 18:25:00 10° WNW 18:27:19 40° WNW 18:27:19 40° WNW visible
05 Feb -3.8 17:37:24 10° NW 17:40:47 70° NNE 17:42:10 32° ESE visible
